Regional Weather Roundup
Issued by NWS

Home | Current Version | Previous Version | Text Only | Print | Product List | Glossary Off
Versions: 1 2 3 4 5 6 7 8 9 10 11 12 13 14 15 16 17 18 19 20 21 22 23 24 25 26 27 28 29 30 31 32 33 34 35 36 37 38 39 40 41 42 43 44 45 46 47 48 49 50

000
ASUS45 KTFX 021810
RWRMT
MONTANA REGIONAL WEATHER ROUNDUP
NATIONAL WEATHER SERVICE GREAT FALLS MT
1200 PM MDT WED SEP 02 2015

NOTE: "FAIR" INDICATES FEW OR NO CLOUDS BELOW 12000 FEET WITH NO
SIGNIFICANT WEATHER AND/OR OBSTRUCTIONS TO VISIBILITY.

MTZ001>007-043-021900-
WEST OF THE DIVIDE

CITY           SKY/WX    TMP DP  RH WIND       PRES   REMARKS
KALISPELL      MOCLDY    70  38  31 SW16G25   29.78S
MISSOULA       CLOUDY    68  39  34 NW16      29.84R
BUTTE          PTSUNNY   75  30  19 NW18      29.86F
MULLAN PASS    CLOUDY    45  40  82 SW9       29.94R
DEER LODGE       N/A     68  36  30 NE6       29.87S
EUREKA           N/A     66  41  39 S10       29.76S
HAMILTON         N/A     66  43  42 NW6       29.81F
LIBBY            N/A     66  39  37 SE8G20    29.80R
$$

MTZ008-052>055-021900-
SOUTHWEST MONTANA

CITY           SKY/WX    TMP DP  RH WIND       PRES   REMARKS
BOZEMAN        PTSUNNY   86  30  13 SW15G23   29.79F
DILLON         MOSUNNY   83  30  14 SW22G30   29.83F
W YELLOWSTONE  MOSUNNY   70  32  24 SW13G23   30.06F
$$

MTZ009-010-012-014-046-048-049-054-021900-
EAST SLOPES AND CENTRAL MONTANA

CITY           SKY/WX    TMP DP  RH WIND       PRES   REMARKS
CUT BANK       MOSUNNY   73  32  22 W13G24    29.73R
GREAT FALLS    CLOUDY    76  34  21 W10       29.72R
MALMSTROM AFB  CLOUDY    72  37  27 W12       29.72R
HELENA         PTSUNNY   72  38  29 NE6       29.77F
CONRAD           N/A     77  37  23 E1        29.77R
$$

MTZ011-013-016-021-045-047-050-051-021900-
NORTH CENTRAL MONTANA

CITY           SKY/WX    TMP DP  RH WIND       PRES   REMARKS
HAVRE          PTSUNNY   79  35  20 W13       29.66S
LEWISTOWN      MOSUNNY   90  37  15 SW17G26   29.75F
N BAR RANCH      N/A     75  45  33 NE5       29.82F
CHINOOK          N/A     77  41  27 W3        29.65F
FORT BENTON      N/A     77  36  22 CALM      29.69S
$$

MTZ017>020-022>027-061-062-021900-
NORTHEAST MONTANA

CITY           SKY/WX    TMP DP  RH WIND       PRES   REMARKS
GLASGOW        PTSUNNY   85  42  22 S8        29.66F
JORDAN           N/A     96  29   9 W6        29.67F HX  90
SIDNEY         SUNNY     93  52  24 S16       29.69F HX  90
WOLF POINT     SUNNY     89  47  23 VRB3      29.66F
MALTA            N/A     76  46  34 CALM      29.65F
PLENTYWOOD       N/A     90  52  27 S21G32    29.70S
POPLAR           N/A     91  43  18 S7        29.68S
$$

MTZ028>42-056>058-021900-
SOUTHCENTRAL AND SOUTHEAST MONTANA

CITY           SKY/WX    TMP DP  RH WIND       PRES   REMARKS
BAKER          MOSUNNY   95  42  16 S8        29.78F HX  91
BILLINGS       PTSUNNY   92  33  12 SW20G26   29.76F
LIVINGSTON     MOSUNNY   88  31  13 SW37G46   29.79F
MILES CITY     SUNNY     91  45  20 SE9       29.72F
EKALAKA          N/A     91  40  16 SE12      29.82F
FORSYTH          N/A     91  45  19 NE6       29.71F
LAUREL           N/A     92  41  17 S18       29.79S
$$

REGIONAL REPORTS...DAKOTAS

CITY           SKY/WX    TMP DP  RH WIND       PRES   REMARKS
WILLISTON      SUNNY     92  54  27 SE16G22   29.71F HX  90
MINOT            N/A     87  65  47 SE10      29.75F
DICKINSON      SUNNY     90  49  24 SE15G21   29.77F
CROSBY           N/A     90  55  31 S17G30    29.71F
BISMARCK       SUNNY     82  69  64 VRB5      29.77F
GRAND FORKS      N/A     84  67  56 SE15      29.81S
FARGO            N/A     86  67  52 S10       29.82S
BUFFALO SD       N/A     91  45  20 S13       29.76S
RAPID CITY     SUNNY     88  53  30 SE8       29.84F
$$

REGIONAL REPORTS...WYOMING/IDAHO/WASHINGTON

CITY           SKY/WX    TMP DP  RH WIND       PRES   REMARKS
GILLETTE       SUNNY     91  40  16 SW16      29.89F
SHERIDAN       SUNNY     95  31  10 SW10      29.83S
BUFFALO WY     MOSUNNY   89  35  14 SE6       29.94F
CODY           SUNNY     84  34  16 CALM      29.91F
YELLOWSTONE LA   N/A     69  32  25 W10G18    30.16S
IDAHO FALLS    MOSUNNY   80  35  19 SW21G26   29.97S
SALMON         MOSUNNY   70  39  32 CALM      29.79F
BOISE          PTSUNNY   79  37  22 N8        29.87F
SPOKANE        PTSUNNY   65  41  41 SW21      29.83R
$$

REGIONAL REPORTS...ALBERTA

CITY           SKY/WX    TMP DP  RH WIND       PRES   REMARKS
EDMONTON       MOSUNNY   61  45  55 N5        29.55F
CALGARY        MOSUNNY   68  41  37 S14G22    29.58S
LETHBRIDGE     MOSUNNY   77  30  18 SW24G33   29.64S
MEDICINE HAT   CLOUDY    77  37  24 SW13G18   29.63S
WATERTON GATE    N/A     66  34  30 SW30G45     N/A
CARDSTON         N/A     70  34  26 SW12G18     N/A
MILK RIVER       N/A     77  34  20 SW23G30     N/A
ONEFOUR          N/A     75  30  19 W6          N/A
$$

REGIONAL REPORTS...SASKATCHEWAN

CITY           SKY/WX    TMP DP  RH WIND       PRES   REMARKS
SWIFT CURRENT  MOSUNNY   73  43  33 S15G21    29.63R
REGINA         PTSUNNY   84  46  26 SE26      29.66F
SASKATOON      CLOUDY    70  50  49 E5        29.64F
CYPRESS HILLS    N/A     72  36  26 SW8         N/A
VAL MARIE        N/A     73  43  33 S9          N/A
ROCKGLEN         N/A     82  48  30 S16G22      N/A
ASSINIBOIA       N/A     70  43  37 E6          N/A
$$



USA.gov is the U.S. government's official web portal to all federal, state and local government web resources and services.